User: anonymous   Login
Location: Unspecified
(0.0000°N, 0.0000°E)
Time: 19:27:08
(UTC+02:00)
Language:

ARIANE 44L R/B - Orbit

View from above orbital plane
View from above orbital plane
View from above satellite
View from above satellite

Ground track
Ground track

The orbit data is extracted from the following two-line orbital elements,

1 26901U 01039B   16120.88213252  .00002646  00000-0  72627-3 0  9997
2 26901   7.5507 341.4962 6911963 289.6830  11.5211  2.75128731132119
Epoch (UTC): 29 April 2016 21:10:16
Eccentricity: 0.6911963
inclination: 7.5507°
perigee height: 265 km
apogee height: 30005 km
right ascension of ascending node: 341.4962°
argument of perigee: 289.6830°
revolutions per day: 2.75128731
mean anomaly at epoch: 11.5211°
orbit number at epoch: 13211

The dashed part of the orbit path shows where the satellite is in the earth's shadow,  

DLR